Location: Dallas
(32.7833°N, 96.8000°W)
Time: 06:40:37
(UTC-06:00)

ISS - Visible Passes

Search period start: 03 December 2022 00:00
Search period end: 13 December 2022 00:00
Orbit: 414 x 420 km, 51.6° (Epoch: 03 December)

Date Brightness Start Highest point End Pass type
(mag) Time Alt. Az. Time Alt. Az. Time Alt. Az.
03 Dec -1.5 18:41:16 10° N 18:42:11 14° N 18:42:11 14° N visible
04 Dec -1.6 17:54:07 10° N 17:55:14 11° NNE 17:56:22 10° NE visible
04 Dec -0.9 19:29:03 10° NW 19:29:35 14° NW 19:29:35 14° NW visible
05 Dec -3.6 18:41:00 10° NW 18:44:14 47° NE 18:44:19 47° NE visible
06 Dec -2.7 17:53:06 10° NNW 17:56:00 26° NE 17:58:52 10° E visible
06 Dec -1.3 19:30:00 10° WNW 19:32:29 22° SW 19:32:29 22° SW visible
07 Dec -2.6 18:41:22 10° WNW 18:44:33 43° SW 18:47:44 10° SSE visible
08 Dec -3.8 17:53:04 10° NW 17:56:24 89° NE 17:59:43 10° SE visible
09 Dec -0.4 18:43:07 10° W 18:44:34 12° SW 18:46:02 10° SSW visible
10 Dec -1.0 17:53:44 10° WNW 17:56:28 23° SW 17:59:12 10° S visible
